| time (UTC) | temp F | wind direction | speed MPH | gust MPH | rain 1hr in | rain 24hr in | rain mn in | humidity % | barometer mb |
| 20260903181558 | 82 | 270 | 1.0 | 7.0 | 0.00 | 0.00 | 0.00 | 68 | 1025.0 |
| 20260903180057 | 83 | 283 | 0.0 | 5.0 | 0.00 | 0.00 | 0.00 | 66 | 1024.9 |
| 20260903174555 | 85 | 266 | 1.0 | 4.0 | 0.00 | 0.00 | 0.00 | 63 | 1024.8 |
| 20260903173055 | 86 | 252 | 3.0 | 8.0 | 0.00 | 0.00 | 0.00 | 62 | 1024.8 |
| 20260903171555 | 87 | 205 | 0.0 | 7.0 | 0.00 | 0.00 | 0.00 | 61 | 1024.7 |
| 20260903170058 | 86 | 259 | 0.0 | 8.0 | 0.00 | 0.00 | 0.00 | 60 | 1024.6 |
| 20260903164557 | 86 | 148 | 4.0 | 9.0 | 0.00 | 0.00 | 0.00 | 60 | 1024.5 |
| 20260903163107 | 86 | 135 | 4.0 | 13.0 | 0.00 | 0.00 | 0.00 | 60 | 1024.6 |
| 20260903161550 | 87 | 116 | 3.0 | 7.0 | 0.00 | 0.00 | 0.00 | 59 | 1024.5 |
| 20260903160055 | 87 | 187 | 6.0 | 13.0 | 0.00 | 0.00 | 0.00 | 58 | 1024.6 |
| 20260903154546 | 87 | 152 | 5.0 | 11.0 | 0.00 | 0.00 | 0.00 | 58 | 1024.7 |
| 20260903153045 | 88 | 180 | 6.0 | 12.0 | 0.00 | 0.00 | 0.00 | 55 | 1024.6 |
| 20260903151542 | 89 | 113 | 5.0 | 11.0 | 0.00 | 0.00 | 0.00 | 54 | 1024.6 |
| 20260903150052 | 89 | 181 | 4.0 | 10.0 | 0.00 | 0.00 | 0.00 | 53 | 1024.7 |
| 20260903144535 | 90 | 89 | 3.0 | 13.0 | 0.00 | 0.00 | 0.00 | 51 | 1024.7 |
| 20260903143037 | 90 | 152 | 3.0 | 13.0 | 0.00 | 0.00 | 0.00 | 51 | 1024.7 |
| 20260903141535 | 90 | 135 | 2.0 | 10.0 | 0.00 | 0.00 | 0.00 | 51 | 1024.8 |
| 20260903140031 | 89 | 128 | 4.0 | 11.0 | 0.00 | 0.00 | 0.00 | 52 | 1024.8 |
| 20260903134530 | 90 | 158 | 5.0 | 12.0 | 0.00 | 0.00 | 0.00 | 50 | 1025.0 |
| 20260903133028 | 90 | 150 | 4.0 | 12.0 | 0.00 | 0.00 | 0.00 | 50 | 1025.2 |
| 20260903131527 | 90 | 204 | 4.0 | 11.0 | 0.00 | 0.00 | 0.00 | 49 | 1025.2 |
| 20260903130026 | 91 | 178 | 4.0 | 10.0 | 0.00 | 0.00 | 0.00 | 48 | 1025.3 |
| 20260903124526 | 92 | 167 | 3.0 | 11.0 | 0.00 | 0.00 | 0.00 | 47 | 1025.3 |
| 20260903123028 | 91 | 155 | 1.0 | 8.0 | 0.00 | 0.00 | 0.00 | 44 | 1025.4 |
| 20260903121521 | 90 | 76 | 3.0 | 15.0 | 0.00 | 0.00 | 0.00 | 44 | 1025.3 |
| 20260903120020 | 91 | 142 | 2.0 | 12.0 | 0.00 | 0.00 | 0.00 | 42 | 1025.4 |
| 20260903114520 | 91 | 133 | 0.0 | 9.0 | 0.00 | 0.00 | 0.00 | 41 | 1025.5 |
| 20260903113017 | 90 | 222 | 3.0 | 10.0 | 0.00 | 0.00 | 0.00 | 42 | 1025.7 |
| 20260903111515 | 90 | 134 | 0.0 | 10.0 | 0.00 | 0.00 | 0.00 | 43 | 1025.9 |
| 20260903110013 | 90 | 61 | 2.0 | 9.0 | 0.00 | 0.00 | 0.00 | 44 | 1025.9 |
| 20260903104511 | 89 | 89 | 3.0 | 7.0 | 0.00 | 0.00 | 0.00 | 46 | 1026.2 |
| 20260903103008 | 88 | 37 | 2.0 | 7.0 | 0.00 | 0.00 | 0.00 | 46 | 1026.3 |
| 20260903101506 | 88 | 141 | 2.0 | 8.0 | 0.00 | 0.00 | 0.00 | 48 | 1026.7 |
| 20260903100011 | 87 | 87 | 1.0 | 5.0 | 0.00 | 0.00 | 0.00 | 49 | 1026.6 |
| 20260903094503 | 88 | 113 | 0.0 | 4.0 | 0.00 | 0.00 | 0.00 | 46 | 1026.7 |
| 20260903093127 | 86 | 98 | 0.0 | 2.0 | 0.00 | 0.00 | 0.00 | 48 | 1026.8 |
| 20260903091557 | 85 | 119 | 0.0 | 3.0 | 0.00 | 0.00 | 0.00 | 51 | 1026.9 |
| 20260903090054 | 84 | 123 | 0.0 | 3.0 | 0.00 | 0.00 | 0.00 | 50 | 1026.7 |
| 20260903084552 | 84 | 115 | 0.0 | 4.0 | 0.00 | 0.00 | 0.00 | 52 | 1026.7 |
| 20260903083055 | 84 | 126 | 0.0 | 1.0 | 0.00 | 0.00 | 0.00 | 53 | 1026.6 |
| 20260903081546 | 82 | 122 | 0.0 | 2.0 | 0.00 | 0.00 | 0.00 | 56 | 1026.5 |
| 20260903080043 | 81 | 158 | 0.0 | 1.0 | 0.00 | 0.00 | 0.00 | 59 | 1026.6 |
| 20260903074543 | 77 | 158 | 0.0 | 0.0 | 0.00 | 0.00 | 0.00 | 64 | 1026.5 |
| 20260903073033 | 74 | 158 | 0.0 | 0.0 | 0.00 | 0.00 | 0.00 | 70 | 1026.6 |
| 20260903071530 | 73 | 158 | 0.0 | 2.0 | 0.00 | 0.00 | 0.00 | 71 | 1026.6 |
| 20260903070049 | 71 | 163 | 0.0 | 1.0 | 0.00 | 0.00 | 0.00 | 76 | 1026.6 |
| 20260903064525 | 69 | 163 | 0.0 | 0.0 | 0.00 | 0.00 | 0.00 | 80 | 1026.5 |
| 20260903063022 | 67 | 163 | 0.0 | 0.0 | 0.00 | 0.00 | 0.00 | 84 | 1026.3 |
| 20260903061521 | 66 | 163 | 0.0 | 0.0 | 0.00 | 0.00 | 0.00 | 84 | 1026.2 |
| 20260903060019 | 66 | 163 | 0.0 | 0.0 | 0.00 | 0.00 | 0.00 | 84 | 1026.0 |
| 20260903054533 | 66 | 163 | 0.0 | 0.0 | 0.00 | 0.00 | 0.00 | 84 | 1025.9 |
| 20260903053018 | 65 | 163 | 0.0 | 0.0 | 0.00 | 0.00 | 0.00 | 84 | 1025.8 |
| 20260903051515 | 65 | 163 | 0.0 | 0.0 | 0.00 | 0.00 | 0.00 | 84 | 1025.7 |
| 20260903050014 | 65 | 163 | 0.0 | 2.0 | 0.00 | 0.00 | 0.00 | 83 | 1025.6 |
| 20260903044512 | 65 | 163 | 0.0 | 0.0 | 0.00 | 0.00 | 0.00 | 83 | 1025.5 |
| 20260903043020 | 65 | 163 | 0.0 | 0.0 | 0.00 | 0.00 | 0.00 | 83 | 1025.5 |
| 20260903041519 | 65 | 163 | 0.0 | 0.0 | 0.00 | 0.00 | 0.00 | 83 | 1025.5 |
| 20260903040010 | 65 | 163 | 0.0 | 0.0 | 0.00 | 0.00 | 0.00 | 82 | 1025.6 |
| 20260903034514 | 65 | 163 | 0.0 | 0.0 | 0.00 | 0.00 | 0.00 | 82 | 1025.7 |
| 20260903033007 | 65 | 163 | 0.0 | 0.0 | 0.00 | 0.00 | 0.00 | 83 | 1025.8 |
| 20260903031507 | 65 | 163 | 0.0 | 0.0 | 0.00 | 0.00 | 0.00 | 83 | 1025.8 |
| 20260903030006 | 65 | 163 | 0.0 | 0.0 | 0.00 | 0.00 | 0.00 | 83 | 1025.8 |
| 20260903024504 | 65 | 163 | 0.0 | 0.0 | 0.00 | 0.00 | 0.00 | 83 | 1025.9 |
| 20260903023010 | 66 | 164 | 0.0 | 0.0 | 0.00 | 0.00 | 0.00 | 82 | 1025.8 |
| 20260903021504 | 66 | 163 | 0.0 | 0.0 | 0.00 | 0.00 | 0.00 | 82 | 1026.0 |
| 20260903020104 | 66 | 163 | 0.0 | 0.0 | 0.00 | 0.00 | 0.00 | 83 | 1025.9 |
| 20260903014625 | 66 | 163 | 0.0 | 0.0 | 0.00 | 0.00 | 0.00 | 84 | 1025.9 |
| 20260903013108 | 66 | 163 | 0.0 | 0.0 | 0.00 | 0.00 | 0.00 | 83 | 1026.0 |
| 20260903011557 | 66 | 163 | 0.0 | 0.0 | 0.00 | 0.00 | 0.00 | 82 | 1025.9 |
| 20260903010055 | 67 | 164 | 0.0 | 0.0 | 0.00 | 0.00 | 0.00 | 81 | 1025.9 |
| 20260903004558 | 67 | 164 | 0.0 | 0.0 | 0.00 | 0.00 | 0.00 | 81 | 1026.0 |
| 20260903003107 | 67 | 164 | 0.0 | 0.0 | 0.00 | 0.00 | 0.00 | 80 | 1026.1 |
| 20260903001553 | 67 | 164 | 0.0 | 0.0 | 0.00 | 0.00 | 0.00 | 79 | 1026.1 |
| 20260903000059 | 68 | 164 | 0.0 | 0.0 | 0.00 | 0.00 | 0.00 | 79 | 1026.0 |
| 20260902234551 | 68 | 164 | 0.0 | 1.0 | 0.00 | 0.00 | 0.00 | 80 | 1026.1 |
| 20260902233047 | 69 | 164 | 0.0 | 1.0 | 0.00 | 0.00 | 0.00 | 79 | 1026.0 |
| 20260902231547 | 69 | 164 | 0.0 | 0.0 | 0.00 | 0.00 | 0.00 | 80 | 1025.9 |
| 20260902230047 | 70 | 164 | 0.0 | 0.0 | 0.00 | 0.00 | 0.00 | 81 | 1025.9 |
| 20260902224602 | 70 | 164 | 0.0 | 0.0 | 0.00 | 0.00 | 0.00 | 82 | 1025.8 |
| 20260902223040 | 70 | 163 | 0.0 | 0.0 | 0.00 | 0.00 | 0.00 | 81 | 1025.8 |
| 20260902221537 | 71 | 163 | 0.0 | 0.0 | 0.00 | 0.00 | 0.00 | 80 | 1025.9 |
| 20260902220036 | 71 | 164 | 0.0 | 0.0 | 0.00 | 0.00 | 0.00 | 81 | 1025.9 |
| 20260902214605 | 71 | 163 | 0.0 | 0.0 | 0.00 | 0.00 | 0.00 | 80 | 1025.8 |
| 20260902213034 | 72 | 163 | 0.0 | 1.0 | 0.00 | 0.00 | 0.00 | 79 | 1025.7 |
| 20260902211534 | 72 | 163 | 0.0 | 0.0 | 0.00 | 0.00 | 0.00 | 79 | 1025.8 |
| 20260902210033 | 72 | 163 | 0.0 | 0.0 | 0.00 | 0.00 | 0.00 | 79 | 1025.9 |
| 20260902204531 | 72 | 163 | 0.0 | 0.0 | 0.00 | 0.00 | 0.00 | 79 | 1025.8 |
| 20260902203030 | 72 | 163 | 0.0 | 0.0 | 0.00 | 0.00 | 0.00 | 79 | 1025.6 |
| 20260902201535 | 73 | 164 | 0.0 | 0.0 | 0.00 | 0.00 | 0.00 | 77 | 1025.6 |
| 20260902200028 | 73 | 163 | 0.0 | 0.0 | 0.00 | 0.00 | 0.00 | 77 | 1025.6 |
| 20260902194625 | 74 | 163 | 0.0 | 0.0 | 0.00 | 0.00 | 0.00 | 75 | 1025.4 |
| 20260902193024 | 75 | 164 | 0.0 | 0.0 | 0.00 | 0.00 | 0.00 | 73 | 1025.4 |
| 20260902191524 | 76 | 164 | 0.0 | 0.0 | 0.00 | 0.00 | 0.00 | 71 | 1025.2 |
| 20260902190022 | 77 | 164 | 0.0 | 1.0 | 0.00 | 0.00 | 0.00 | 69 | 1025.0 |
| 20260902184521 | 78 | 128 | 1.0 | 3.0 | 0.00 | 0.00 | 0.00 | 68 | 1024.8 |
| 20260902183021 | 78 | 160 | 1.0 | 3.0 | 0.00 | 0.00 | 0.00 | 67 | 1024.6 |